Tracking 27124 objects as of 31-Mar-2023
HD Live streaming from Space Station
objects crossing your sky now

SCOUT G-1 R/B

Track SCOUT G-1 R/B now!
10-day predictions


NORAD ID: 18363
Int'l Code: 1987-080C
Perigee: 1,024.3 km
Apogee: 1,179.4 km
Inclination: 90.3 °
Period: 107.1 minutes
Semi major axis: 7472 km
RCS: 0.8872 m2 (medium)
Launch date: September 16, 1987
Source: United States (US)
Launch site: AIR FORCE WESTERN TEST RANGE (AFWTR)

Note: This is a ROCKET BODY
Your satellite tracking list
Your tracking list is empty




NASA's NSSDC Master Catalog

Two Line Element Set (TLE):
1 18363U 87080C   23090.13746387  .00000133  00000-0  21022-3 0  9994
2 18363  90.3447  43.9778 0103735 207.9433 163.9152 13.43915918742391
Source of the keplerian elements: AFSPC